星链-35099(STARLINK-35099)

导读

STARLINK-35099是美国星链计划中的低轨互联网卫星,于2025年9月25日发射入轨,属于SpaceX公司打造的星链卫星星座网络一员。星链通过大规模部署低轨卫星,旨在实现全球范围内高速卫星互联网覆盖,为地面偏远地区、海事航空等场景提供网络接入服务,该卫星的入轨进一步扩充了星链星座的服务能力。

基本信息
目录编号:
65735
目录名称:
STARLINK-35099
国际标识:
2025-216B
轨道中心:
EARTH
卫星名称:
星链-35099
卫星全名:
星链-35099(STARLINK-35099)
卫星状态:
在轨 (已飞行261 天)
发射日期:
2025-09-25 UTC
国别 :
美国 (US)
星等 :
--
轨道信息
数据来源 国际轨道数据 AOE轨道数据
星历时间 2026-06-13T07:03:00+0800
15小时前
查看轨道信息
2026-06-13T06:00:00+0800
16小时前
查看轨道信息
半长轴 6853.294km 6853.357km
偏心率 0.000167 0.0001123
轨道倾角 53.160° 53.158°
近地点辐角 75.556° 78.952°
升交点赤经 250.109° 250.313°
平近点角 284.563° 40.031°
近地点 474.012km 474.45km
远地点 476.302km 475.99km
周期 94.104分钟 94.105分钟
每日圈数 15.302196 15.301985
详细信息
固有亮度:
5
最大亮度:
2.5
卫星平台:
Starlink V1.0
覆盖范围:
全球
运营商:
太空探索技术公司
运营商所在国:
美国
制造商(研发单位):
太空探索技术公司
制造商所在国:
美国
使用方式:
暂无
卫星简介
Starlink 计划是 SpaceX 推出的全球卫星互联网项目,通过发射低轨道卫星,为全球尤其是偏远地区提供高速、低延迟的互联网服务。自 2019 年起,Starlink 已部署数千颗卫星,旨在缩小全球数字鸿沟,推动互联网普及。该项目还为军事、航空等行业提供通信支持,带来广泛经济效益。
2D轨道图
3D轨道图
轨道高度分析图
轨道倾角分析图
轨道综合分析图
查看轨道综合分析图